DW9672 Weather Reports


Display with metric or nautical units.
time (UTC)temp
F
wind
direction
speed
MPH
gust
MPH
rain 1hr
in
rain 24hr
in
rain mn
in
humidity
%
barometer
mb
20260906064539 72 23 0.0 2.0 0.00 0.01 0.00 92 1017.3
20260906063021 72 28 0.0 0.0 0.00 0.01 0.00 92 1017.4
20260906061518 72 28 0.0 2.0 0.00 0.01 0.00 92 1017.2
20260906060008 72 44 2.0 4.0 0.00 0.01 0.00 91 1017.1
20260906054506 72 42 0.0 2.0 0.00 0.01 0.00 91 1017.1
20260906053005 72 56 0.0 3.0 0.00 0.01 0.00 91 1017.0
20260906051505 72 66 0.0 3.0 0.00 0.01 0.00 90 1016.9
20260906050004 72 63 0.0 4.0 0.00 0.01 0.00 90 1016.7
20260906044501 72 123 0.0 2.0 0.00 0.01 0.00 90 1016.5
20260906043103 72 82 2.0 6.0 0.00 0.01 0.00 90 1016.4
20260906041601 72 14 0.0 6.0 0.00 0.01 0.00 90 1016.2
20260906040046 72 139 0.0 8.0 0.00 0.01 0.00 90 1016.2
20260906034545 72 140 0.0 6.0 0.00 0.01 0.01 91 1016.0
20260906033057 72 61 0.0 3.0 0.00 0.01 0.01 90 1016.0
20260906031543 73 80 2.0 7.0 0.00 0.01 0.01 90 1016.0
20260906030045 73 82 0.0 6.0 0.00 0.01 0.01 89 1016.1
20260906024545 74 136 2.0 7.0 0.00 0.01 0.01 89 1016.0
20260906023048 75 102 0.0 1.0 0.00 0.01 0.01 89 1015.9
20260906021536 75 42 0.0 1.0 0.00 0.01 0.01 89 1015.8
20260906020016 76 40 0.0 4.0 0.00 0.01 0.01 88 1015.4
20260906014515 76 65 0.0 6.0 0.00 0.01 0.01 88 1015.2
20260906013115 77 20 1.0 6.0 0.00 0.01 0.01 88 1014.9
20260906011605 77 26 0.0 0.0 0.00 0.01 0.01 87 1015.0
20260906010058 77 26 0.0 0.0 0.00 0.01 0.01 86 1015.0
20260906004539 78 26 0.0 2.0 0.00 0.02 0.01 85 1015.0
20260906003038 79 32 0.0 0.0 0.00 0.02 0.01 83 1014.8
20260906001521 79 32 0.0 3.0 0.00 0.02 0.01 82 1014.8
20260906000036 80 36 1.0 6.0 0.00 0.02 0.01 81 1014.9
20260905234507 80 29 1.0 6.0 0.00 0.02 0.01 81 1014.8
20260905233006 81 103 1.0 6.0 0.00 0.02 0.01 80 1014.5
20260905231505 82 96 2.0 11.0 0.00 0.02 0.01 79 1014.5
20260905230004 83 60 4.0 10.0 0.00 0.02 0.01 77 1014.5
20260905224504 84 51 4.0 11.0 0.00 0.02 0.01 77 1014.3
20260905223007 85 58 5.0 10.0 0.00 0.02 0.01 75 1014.1
20260905221502 86 19 2.0 11.0 0.00 0.02 0.01 76 1014.0
20260905220003 86 74 4.0 11.0 0.00 0.02 0.01 75 1014.0
20260905214547 87 38 4.0 9.0 0.00 0.02 0.01 73 1013.7
20260905213047 87 355 1.0 10.0 0.00 0.02 0.01 74 1013.6
20260905211552 87 67 3.0 9.0 0.00 0.02 0.01 72 1013.6
20260905210048 88 25 4.0 10.0 0.00 0.02 0.01 72 1013.4
20260905204547 88 48 5.0 10.0 0.00 0.02 0.01 73 1013.4
20260905201548 88 52 5.0 9.0 0.00 0.02 0.01 75 1013.7
20260905200048 88 92 2.0 9.0 0.00 0.02 0.01 75 1013.8
20260905194549 88 15 7.0 13.0 0.00 0.02 0.01 74 1013.7
20260905191550 88 9 5.0 10.0 0.01 0.02 0.01 73 1013.7
20260905190047 88 355 4.0 10.0 0.01 0.02 0.01 74 1013.8
20260905184608 88 28 3.0 7.0 0.01 0.02 0.01 73 1013.9
20260905181523 87 23 3.0 7.0 0.00 0.01 0.00 76 1014.2
20260905180027 88 49 4.0 10.0 0.00 0.01 0.00 76 1014.3
20260905174508 88 43 4.0 7.0 0.00 0.02 0.00 77 1014.2
20260905173002 88 63 2.0 9.0 0.00 0.02 0.00 76 1014.3
20260905171545 88 13 4.0 7.0 0.00 0.02 0.00 78 1014.4
20260905170045 87 19 3.0 8.0 0.00 0.02 0.00 78 1014.5
20260905164526 88 355 4.0 9.0 0.00 0.02 0.00 77 1014.5
20260905163024 88 66 0.0 5.0 0.00 0.02 0.00 76 1014.5
20260905161504 87 23 4.0 8.0 0.00 0.02 0.00 77 1014.5
20260905160002 87 42 0.0 8.0 0.00 0.02 0.00 78 1014.4
20260905154606 86 5 0.0 6.0 0.00 0.02 0.00 82 1014.3
20260905153039 85 40 1.0 6.0 0.00 0.02 0.00 84 1014.3
20260905151519 85 346 1.0 7.0 0.00 0.02 0.00 85 1014.2
20260905150017 84 360 3.0 6.0 0.00 0.02 0.00 87 1014.1
20260905144507 83 22 5.0 9.0 0.00 0.02 0.00 87 1014.1
20260905143003 83 79 5.0 9.0 0.00 0.02 0.00 87 1014.1
20260905141501 83 48 1.0 6.0 0.00 0.02 0.00 87 1013.9
20260905140058 82 5 0.0 3.0 0.00 0.02 0.00 90 1013.9
20260905134554 81 5 0.0 2.0 0.00 0.02 0.00 92 1013.9
20260905133051 79 31 1.0 3.0 0.00 0.02 0.00 95 1014.0
20260905131548 78 30 1.0 4.0 0.00 0.02 0.00 97 1014.3
20260905130049 77 5 0.0 0.0 0.00 0.02 0.00 99 1013.9
20260905124536 75 5 0.0 0.0 0.00 0.02 0.00 99 1013.7
20260905123034 74 355 0.0 0.0 0.00 0.02 0.00 98 1013.6
20260905121534 74 355 0.0 0.0 0.00 0.02 0.00 98 1013.4
20260905120037 74 355 0.0 0.0 0.00 0.02 0.00 98 1013.2
20260905114533 74 355 0.0 0.0 0.00 0.02 0.00 98 1013.1
20260905113045 74 355 0.0 0.0 0.00 0.02 0.00 98 1012.8
20260905111551 74 355 0.0 0.0 0.00 0.02 0.00 98 1012.9
20260905110040 74 339 0.0 0.0 0.00 0.02 0.00 98 1012.7
20260905104514 74 339 0.0 0.0 0.00 0.02 0.00 98 1012.7
20260905103012 74 339 0.0 0.0 0.00 0.02 0.00 98 1012.7
20260905101603 74 339 0.0 0.0 0.00 0.02 0.00 98 1012.8
20260905100056 74 339 0.0 0.0 0.00 0.02 0.00 98 1012.8
20260905094536 74 339 0.0 0.0 0.00 0.02 0.00 98 1012.8
20260905093035 74 339 0.0 0.0 0.00 0.02 0.00 98 1012.8
20260905091526 74 339 0.0 0.0 0.00 0.02 0.00 98 1012.9
20260905090022 74 339 0.0 0.0 0.00 0.02 0.00 97 1012.9
20260905084520 75 339 0.0 0.0 0.00 0.02 0.00 98 1013.0
20260905083020 75 339 0.0 0.0 0.00 0.02 0.00 98 1012.9
20260905081519 75 339 0.0 0.0 0.00 0.02 0.00 97 1013.0
20260905080022 75 339 0.0 0.0 0.00 0.02 0.00 97 1013.0
20260905074519 75 339 0.0 0.0 0.00 0.02 0.00 97 1013.1
20260905073014 75 339 0.0 0.0 0.00 0.02 0.00 97 1013.1
20260905071558 75 339 0.0 0.0 0.00 0.02 0.00 97 1013.2
20260905070056 75 339 0.0 0.0 0.00 0.02 0.00 97 1013.2